This demonstration page uses our WeatherBlox Daily Observations layout. Learn more.

Left ArrowRight Arrow

39.51506, -84.39828

Hourly Observations for September 23, 2021

Temp ( °F °C ) Dew Point ( °F °C ) Humidity (%) Winds ( mph kmh ) Pressure ( in mb ) Visibility ( mi km ) Precip ( " mm )
12:15 am 00:15 Cloudy with Light Rain 54 12 N/A N/A W 8 13 29.91 1013 5 8 N/A
12:35 am 00:35 Cloudy with Light Rain 53 11.7 53 11.5 99 99 W 10 17 29.91 1013 10 16 N/A
12:55 am 00:55 Cloudy with Light Rain 53 11.7 53 11.5 99 99 W 10 17 29.91 1013 10 16 0.01 0.25
1:15 am 01:15 Cloudy 53 11.5 52 11.3 99 99 W 9 15 29.92 1013 7 11 N/A
1:35 am 01:35 Cloudy with Light Rain 53 11.4 52 11.2 99 99 W 12 19 29.92 1013 7 11 N/A
1:55 am 01:55 Cloudy with Drizzle 53 11.4 52 11.1 98 98 W 9 15 29.92 1013 7 11 N/A
2:15 am 02:15 Cloudy 53 11.4 52 11.1 98 98 W 9 15 29.91 1013 10 16 0.01 0.25
2:35 am 02:35 Cloudy 53 11.4 52 11.2 99 99 W 10 17 29.91 1013 10 16 0.01 0.25
2:55 am 02:55 Cloudy with Drizzle 53 11.4 52 11 97 97 W 10 17 29.91 1013 10 16 0.01 0.25
3:15 am 03:15 Cloudy 53 11.4 52 10.9 97 97 W 13 20 29.91 1013 10 16 N/A
3:35 am 03:35 Cloudy 53 11.4 52 11 97 97 W 9 15 29.91 1013 10 16 N/A
3:55 am 03:55 Cloudy 53 11.4 51 10.7 96 96 W 13 20 29.91 1013 10 16 0.01 0.25
4:15 am 04:15 Cloudy 52 11.2 51 10.4 95 95 W 13 20 29.91 1013 10 16 N/A
4:35 am 04:35 Mostly Cloudy 52 11.2 49 9.5 89 89 WNW 12 19 29.91 1013 10 16 N/A
4:55 am 04:55 Partly Cloudy 52 10.9 47 8.1 83 83 WNW 14 22 29.91 1013 10 16 N/A
5:15 am 05:15 Partly Cloudy 51 10.5 47 8.2 86 86 WNW 12 19 29.91 1013 10 16 N/A
5:35 am 05:35 Cloudy with Light Rain 51 10.6 46 7.8 83 83 WNW 14 22 29.91 1013 10 16 N/A
5:55 am 05:55 Cloudy 51 10.6 46 7.7 82 82 WNW 13 20 29.92 1013 10 16 N/A
6:15 am 06:15 Cloudy 51 10.6 46 8 84 84 WNW 12 19 29.93 1013 10 16 0.01 0.25
6:35 am 06:35 Cloudy 51 10.4 47 8.4 88 88 W 7 11 29.93 1013 10 16 0.01 0.25
6:55 am 06:55 Cloudy 51 10.5 47 8.4 87 87 W 7 11 29.93 1013 10 16 0.01 0.25
7:15 am 07:15 Cloudy 51 10.4 48 8.7 89 89 WSW 5 7 29.93 1013 10 16 N/A
7:35 am 07:35 Cloudy 51 10.3 49 9.2 93 93 WSW 7 11 29.93 1013 10 16 N/A
7:55 am 07:55 Cloudy 51 10.4 49 9.5 94 94 SW 5 7 29.93 1013 10 16 N/A
8:15 am 08:15 Cloudy 51 10.6 50 10.2 97 97 SW 8 13 29.93 1013 10 16 N/A
8:35 am 08:35 Cloudy 52 11 51 10.7 98 98 SW 7 11 29.93 1013 10 16 N/A
8:55 am 08:55 Cloudy 53 11.6 52 11 96 96 SW 9 15 29.93 1014 10 16 N/A
9:15 am 09:15 Mostly Cloudy 54 12.2 52 10.9 92 92 WSW 10 17 29.93 1014 10 16 N/A
9:35 am 09:35 Partly Cloudy 56 13.5 51 10.5 82 82 W 13 20 29.93 1014 10 16 N/A
9:55 am 09:55 Partly Cloudy 57 14.1 51 10.7 80 80 WSW 13 20 29.94 1014 10 16 0.01 0.25
10:15 am 10:15 Mostly Cloudy 59 14.9 51 10.5 75 75 W 10 17 29.94 1014 10 16 N/A
10:35 am 10:35 Mostly Cloudy 60 15.3 50 10.2 72 72 W 12 19 29.94 1014 10 16 N/A
10:55 am 10:55 Mostly Cloudy 61 16.2 51 10.4 69 69 W 13 20 29.94 1014 10 16 N/A
11:15 am 11:15 Cloudy 61 16.1 51 10.5 70 70 W 14 22 29.93 1014 10 16 N/A
11:35 am 11:35 Mostly Cloudy 61 16.3 49 9.7 65 65 W 16 26 29.93 1014 10 16 N/A
11:55 am 11:55 Mostly Cloudy 62 16.5 49 9.7 64 64 WNW 12 19 29.93 1014 10 16 N/A
12:15 pm 12:15 Mostly Cloudy 62 16.5 48 9 61 61 W 17 28 29.94 1014 10 16 N/A
12:35 pm 12:35 Mostly Cloudy 63 17.2 49 9.2 60 60 W 20 31 29.94 1014 10 16 N/A
12:55 pm 12:55 Cloudy 62 16.4 49 9.5 64 64 W 13 20 29.94 1014 10 16 N/A
1:15 pm 13:15 Cloudy with Light Rain 55 12.9 50 10.1 83 83 NW 15 24 29.97 1015 7 11 N/A
1:35 pm 13:35 Cloudy 55 12.6 51 10.6 88 88 WNW 13 20 29.98 1015 10 16 N/A
1:55 pm 13:55 Cloudy 58 14.5 52 10.9 79 79 WNW 16 26 29.97 1015 10 16 N/A
2:15 pm 14:15 Cloudy 60 15.5 49 9.6 68 68 WNW 14 22 29.97 1015 10 16 N/A
2:35 pm 14:35 Cloudy 62 16.4 49 9.6 64 64 WNW 15 24 29.96 1015 10 16 N/A
2:55 pm 14:55 Mostly Cloudy 63 17 48 9.1 60 60 W 13 20 29.95 1014 10 16 0.01 0.25
3:15 pm 15:15 Sunny 63 17.4 48 8.7 57 57 WNW 20 31 29.95 1014 10 16 N/A
3:35 pm 15:35 Partly Cloudy 64 17.8 48 9.1 57 57 WNW 15 24 29.95 1014 10 16 N/A
3:55 pm 15:55 Cloudy 61 16.3 47 8.5 60 60 WNW 9 15 29.95 1014 10 16 N/A
4:15 pm 16:15 Mostly Cloudy 63 17.2 48 9 59 59 W 8 13 29.95 1014 10 16 N/A
4:35 pm 16:35 Mostly Cloudy 64 18 47 8.4 54 54 W 22 35 29.95 1014 10 16 N/A
4:55 pm 16:55 Mostly Cloudy 65 18.4 47 8.2 52 52 W 13 20 29.95 1014 10 16 N/A
5:15 pm 17:15 Mostly Cloudy 65 18.5 46 7.6 49 49 W 13 20 29.95 1014 10 16 N/A
5:35 pm 17:35 Mostly Cloudy 66 18.7 46 7.7 49 49 W 14 22 29.95 1014 10 16 N/A
5:55 pm 17:55 Cloudy 65 18.5 47 8.1 51 51 WSW 12 19 29.96 1014 10 16 N/A
6:15 pm 18:15 Cloudy 63 17.3 47 8.4 56 56 WSW 9 15 29.96 1015 10 16 N/A
6:35 pm 18:35 Mostly Cloudy 62 16.5 50 9.8 65 65 WSW 7 11 29.97 1015 10 16 N/A
6:55 pm 18:55 Cloudy 61 16 51 10.3 69 69 SW 6 9 29.97 1015 10 16 N/A
7:15 pm 19:15 Cloudy 60 15.8 52 10.9 73 73 N N/A 29.97 1015 10 16 N/A
7:35 pm 19:35 Cloudy 60 15.5 52 10.9 74 74 W 3 6 29.99 1015 10 16 N/A
7:55 pm 19:55 Cloudy 59 15 53 11.8 81 81 W 3 6 29.99 1015 10 16 N/A
8:15 pm 20:15 Cloudy 58 14.3 56 13.4 94 94 W 3 6 29.99 1016 10 16 N/A
8:35 pm 20:35 Cloudy 57 13.9 56 13.5 97 97 N N/A 30.00 1016 10 16 N/A
8:55 pm 20:55 Cloudy 55 13 57 14 100 100 N N/A 30.01 1016 10 16 N/A
9:15 pm 21:15 Mostly Cloudy 54 12.4 54 12.3 99 99 WSW 5 7 30.01 1016 10 16 N/A
9:35 pm 21:35 Clear 54 12.1 53 11.7 97 97 WSW 3 6 30.01 1016 10 16 N/A
9:55 pm 21:55 Clear 53 11.5 51 10.7 95 95 NW 8 13 30.04 1017 10 16 N/A
10:15 pm 22:15 Clear 53 11.5 50 10.1 91 91 N N/A 30.04 1017 10 16 N/A
10:35 pm 22:35 Clear 51 10.4 50 9.9 97 97 SW 3 6 30.04 1017 10 16 N/A
10:55 pm 22:55 Clear 52 11 51 10.8 99 99 N N/A 30.04 1017 10 16 N/A
11:15 pm 23:15 Clear 50 10 N/A N/A N N/A 30.04 1017 10 16 0.01 0.25
11:35 pm 23:35 Clear 48 9 N/A N/A N N/A 30.04 1017 10 16 0.01 0.25
11:55 pm 23:55 Clear with Mist and Fog 48 9 N/A N/A N N/A 30.05 1018 3 5 0.01 0.25

Powered by AerisWeather